www.pogodaiklimat.ru

Погода и климат >> Архив погоды >> Россия >> Ямало-Ненецкий АО >> Сеяха


ПОГОДА в Сеяхе

  • Прогноз погоды в Сеяхе
  • Монитор погоды в Сеяхе

АРХИВ ПОГОДЫ в Сеяхе

Время (UTC), дата Ветер
(напр.,м/с)
 
Видим.   Явления Облачность Т
(С)
Тd
(С)
f
(%)
Тe
(С)
Тes
(С)
Комфортность P
(гПа)
Po
(гПа)
Тmin
(С)
Tmax
(С)
R
(мм)
R24
(мм)
S
(см)
15 11.08 З 5
{12}
20 км 9/9 720 м
[Cu Sc]
+8.2 +4.6 78 +5 +5 1010.4 1008.2 +10.1
18 11.08 З 5 н/о н/о +7.7 +6.8 94 +4 +4 1010.8 1008.6
21 11.08 З 4 н/о н/о +7.4 +6.4 93 +4 +4 1011.5 1009.3
00 12.08 СЗ 5 20 км 10/10 270 м
[St]
+5.2 +4.2 93 0 0 1013.1 1010.8
03 12.08 З 4 20 км 9/9 300 м
[St]
+5.4 +2.6 82 +1 +2 1014.0 1011.8 +4.7
06 12.08 З 4 20 км 8/8 300 м
[Cu Sc]
+7.6 +1.5 65 +5 +5 1014.6 1012.4
09 12.08 З 2 20 км 10/10 840 м
[Cu Sc]
+8.4 +1.7 63 +7 +7 1015.2 1013.0
12 12.08 С 1 20 км 10/10 1080 м
[Sc]
+8.8 +2.0 62 +8 +8 1015.7 1013.5
15 12.08 Ю 1 20 км 10/0
[Ac und]
+8.2 +2.5 67 +8 +8 1016.2 1014.0 +8.9
18 12.08 ЮЗ 3 н/о н/о +6.6 +3.7 82 +4 +4 1016.3 1014.1
21 12.08 СЗ 3 н/о н/о +6.9 +4.7 86 +4 +4 1016.5 1014.3
00 13.08 СЗ 3 20 км 10/10 960 м
[Cu Sc]
+6.6 +3.5 81 +4 +4 1018.0 1015.8
03 13.08 СЗ 4 20 км 8/4 600 м
[Cu Sc Cs]
+7.4 +1.7 67 +4 +5 1018.7 1016.5 +6.2
06 13.08 З 4 20 км 8/8 330 м
[Cu Sc]
+8.7 +0.9 58 +6 +7 1019.8 1017.6
09 13.08 ЮЗ 3 20 км 4/0
[Ci fib]
+11.0 +1.7 53 +9 +14 1020.0 1017.8
12 13.08 З 4 20 км 9/0
[Ac trans]
+10.9 +2.9 58 +9 +9 1020.8 1018.6
15 13.08 ЮЗ 4 20 км 3/0
[Ci fib]
+10.5 +3.8 63 +8 +8 1020.9 1018.7 +11.3
18 13.08 ЮЗ 5 н/о н/о +7.8 +3.7 75 +4 +4 1021.1 1018.9
21 13.08 ЮЗ 4 н/о н/о +6.4 +3.3 81 +3 +3 1021.7 1019.5
00 14.08 ЮЗ 4 20 км 4/0
[Cs]
+7.2 +1.9 69 +4 +4 1022.0 1019.8
03 14.08 ЮЗ 3 20 км 3/0
[Ci fib]
+10.9 +5.0 67 +9 +12 1022.2 1020.0 +6.0
06 14.08 ЮВ 5 20 км 3/0
[Cs]
+13.7 +6.5 62 +12 +15 1021.3 1019.2
09 14.08 ЮВ 6
{12}
20 км 10/0
[Cs]
+13.0 +6.6 65 +11 +13 1019.7 1017.5
12 14.08 Ю 4
{11}
20 км 10/0
[Ac As]
+12.5 +8.6 77 +11 +11 1018.3 1016.2
15 14.08 ЮВ 3 20 км 10/0
[Ac und]
+11.1 +9.9 92 +9 +9 1016.2 1014.0 +13.9
18 14.08 Ю 4 н/о н/о +12.0 +11.1 94 +10 +10 1014.2 1012.1
21 14.08 Ю 3 н/о н/о +12.3 +11.4 94 +11 +11 1012.7 1010.5
00 15.08 Ю 3 20 км 10/10 210 м
[St]
+12.0 +11.3 95 +10 +10 1012.3 1010.1
03 15.08 Ю 3 2000 м слаб. дождь 10/0 90 м
[As op]
+12.5 +11.9 96 +11 +11 1011.6 1009.4 +11.1 0.4
06 15.08 Ю 4 4000 м дымка {дождь} 10/10 90 м
[St]
+14.5 +13.9 96 +13 +13 1010.3 1008.2
09 15.08 ЮЗ 7-11
{11}
20 км 10/10 400 м
[Sc]
+16.3 +14.0 86 +15 +15 1009.9 1007.8
12 15.08 ЮЗ 7
{12}
20 км 10/10 540 м
[Sc]
+14.3 +11.8 85 +12 +12 1011.1 1008.9
15 15.08 З 4 20 км 10/10 500 м
[Sc]
+13.6 +11.7 88 +12 +12 1011.7 1009.6 +16.7 0.5
18 15.08 ЮЗ 2 н/о н/о +12.1 +11.5 96 +11 +11 1012.3 1010.1
21 15.08 Ю 2 н/о н/о +11.7 +10.9 95 +10 +10 1012.8 1010.6
00 16.08 ЮЗ 2 20 км 6/0
[Cs]
+11.0 +10.3 95 +10 +10 1013.0 1010.8
03 16.08 Ю 2 500 м туман 8/0
[Cs]
+11.5 +11.0 97 +10 +13 1013.5 1011.3 +10.7
06 16.08 Ю 3 20 км {туман} 8/3 300 м
[Cu med, cong Ac trans Cs]
+16.4 +11.1 71 +16 +18 1012.8 1010.7
09 16.08 ЮВ 4 20 км 8/0
[Cs]
+16.4 +11.2 71 +16 +19 1011.5 1009.3
12 16.08 В 4 н/о н/о +14.7 +12.3 86 +13 +13 1010.3 1008.1
15 16.08 ЮВ 4 50 км 10/10 570 м
[Sc]
+14.1 +12.9 92 +13 +13 1008.6 1006.5 +16.6
18 16.08 ЮВ 3 н/о н/о +13.9 +13.4 97 +13 +13 1006.9 1004.7
21 16.08 ЮВ 4 н/о н/о +13.7 +13.1 96 +12 +12 1005.0 1002.9
00 17.08 Ю 4 н/о н/о +14.3 +13.8 97 +13 +13 1003.3 1001.1
03 17.08 З 6 20 км 9/6 750 м
[Cu Sc Cs]
+13.7 +12.4 92 +11 +12 1003.3 1001.2 +13.4
06 17.08 ЮЗ 3 20 км ясно +16.6 +10.7 68 +16 +21 1004.4 1002.3
09 17.08 Ю 4 20 км 10/10 960 м
[Cu Sc]
+14.1 +11.6 85 +13 +13 1004.6 1002.4
12 17.08 ЮЗ 4 20 км {ливн. осадки} 9/9 540 м
[Cu Sc]
+15.2 +12.8 86 +14 +14 1005.2 1003.1
15 17.08 ЮЗ 3 20 км 9/9 300 м
[Sc]
+13.9 +12.2 89 +13 +13 1006.2 1004.1 +16.8
18 17.08 З 5 н/о н/о +12.5 +11.7 95 +10 +10 1007.5 1005.4
21 17.08 З 6 н/о н/о +11.8 +10.9 94 +9 +9 1009.4 1007.2
00 18.08 СЗ 5 20 км 10/10 210 м
[St]
+10.1 +9.3 95 +7 +7 1011.8 1009.6
03 18.08 С 7-11
{11}
20 км 10/10 270 м
[St]
+10.1 +8.5 90 +6 +6 1014.5 1012.3 +9.7
06 18.08 СЗ 8-11
{11}
20 км 10/10 300 м
[Sc]
+10.1 +7.4 83 +6 +6 1016.5 1014.3
09 18.08 С 5
{12}
20 км 10/10 800 м
[Sc]
+9.7 +5.5 75 +7 +7 1018.3 1016.1
12 18.08 СЗ 7
{11}
20 км 10/10 700 м
[Sc]
+10.3 +6.1 75 +7 +7 1020.7 1018.5

 

Местоположение метеостанции Сеяха (Ямало-Ненецкий АО, Россия): широта 70.17 долгота 72.52 высота над уровнем моря 18 м.

В архиве по умолчанию представлена погода в Сеяхе за последнюю неделю. Архивные данные за месяц целиком и за предыдущие месяцы, начиная с января 2011 года, Вы можете получить, выбрав интересующий диапазон дат из раскрывающегося списка и нажав кнопку "Ввод!".


*Определитесь, кто Вы:
робот инопланетянин человек

Внимание! Время в таблицах - всемирное. Для получения местного времени необходимо прибавить поправку, которая равна 5 ч.

Смотрите также архив погоды в соседних городах и на ближайших метеорологических станциях:

Погода в Тамбее (Ямало-Ненецкий АО, Россия) (148 км)
Погода в Антипаюте (Ямало-Ненецкий АО, Россия) (207 км)
Погода в Марресале (Ямало-Ненецкий АО, Россия) (224 км)
Погода в Гыде (Ямало-Ненецкий АО, Россия) (234 км)
Погода в Новом Порте (Ямало-Ненецкий АО, Россия) (277 км)
Погода в Усть-Каре (Ненецкий АО, Россия) (310 км)
Погода в Имени Попова (Ямало-Ненецкий АО, Россия) (362 км)
Погода в Тазовском (Ямало-Ненецкий АО, Россия) (390 км)
Погода в Ныде (Ямало-Ненецкий АО, Россия) (394 км)
Погода в Карауле (Красноярский край, Россия) (402 км)

Пояснения к столбцам:

Ветер - указаны скорость ветра в м/с - средняя за 10 мин, порывы в срок и между сроками (в фигурных скобках) и направление, откуда дует ветер: С - северный, СВ - северо-восточный, В - восточный, ЮВ - юго-восточный, Ю - южный, ЮЗ - юго-западный, З - западный, СЗ - северо-западный.
Видимость - горизонтальная дальность видимости в метрах или километрах. При видимости от 1 до 10 км при отсутствии осадков обычно наблюдается дымка, при ухудшении видимости до 1 км и менее - туман. В сухую погоду видимость может ухудшаться дымом, пылью или мглою.
Явления - указаны атмосферные явления, наблюдавшиеся в срок или в последний час перед сроком; фигурными скобками обозначены явления, наблюдавшиеся между сроками (за 1-3 часа до срока); квадратными скобками обозначены град или гололедные отложения с указанием их диаметра в мм.
Облачность - указаны через наклонную черту общая и нижняя облачность в баллах и высота нижней границы облаков в метрах; квадратными скобками обозначены формы облаков: Ci - перистые, Cs - перисто-слоистые, Cc - перисто-кучевые, Ac - высококучевые, As - высокослоистые, Sc - слоисто-кучевые, Ns - слоисто-дождевые, Cu - кучевые, Cb - кучево-дождевые. Подробнее классификацию облаков см. в Атласе облаков (PDF).
T - Температура воздуха - температура, измеренная на высоте 2 м над землей.
Td - Температура точки росы - температура, при понижении до которой содержащийся в воздухе водяной пар достигнет насыщения.
f - Относительная влажность воздуха - влажноcть воздуха, измеренная на высоте 2 м над землей.
Te - Эффективная температура - температура, которую ощущает одетый по сезону человек в тени. Характеристика душности погоды. При расчете учитывается влияние влажности воздуха и скорости ветра на теплоощущения человека.
Tes - Эффективная температура на солнце - температура, которую ощущает человек, с поправкой на солнечный нагрев. Характеристика знойности погоды. Зависит от высоты солнца над горизонтом, облачности и скорости ветра. Ночью, в пасмурную погоду, а также при ветре 12 м/с и более поправка равна нулю.
P - Атмосферное давление - приведенное к уровню моря атмосферное давление.
Po - Атмосферное давление - измеренное на уровне метеостанции атмосферное давление.
Tmin - Минимальная температура - минимум температуры воздуха на высоте 2 м над землей.
Tmax - Максимальная температура - максимум температуры воздуха на высоте 2 м над землей.
R - Количество осадков - Количество выпавших осадков за период времени, мм. При наведении курсора мыши на число - период времени, за который выпало указанное количество осадков.
R24 - Количество осадков - Количество выпавших осадков за 24 часа, мм.
S - Снежный покров - Высота снежного покрова, см. При наведении курсора мыши на число - состояние снежного покрова и степень покрытия местности в баллах.